Time,TemperatureF,DewpointF,PressureIn,WindDirection,WindDirectionDegrees,WindSpeedMPH,WindSpeedGustMPH,Humidity,HourlyPrecipIn,Conditions,Clouds,dailyrainin,SoftwareType,DateUTC
2013-09-07 00:01:00,81.5,65.3,29.86,SSE,159,0.0,0.0,58,0.00,,,0.00,WeatherCatV1.15B25,2013-09-07 05:01:00,
2013-09-07 00:06:00,81.5,65.3,29.86,SSE,159,0.0,0.0,58,0.00,,,0.00,WeatherCatV1.15B25,2013-09-07 05:06:00,
2013-09-07 00:11:00,81.4,65.2,29.86,SE,131,0.0,0.0,58,0.00,,,0.00,WeatherCatV1.15B25,2013-09-07 05:11:00,
2013-09-07 00:16:00,81.4,65.2,29.86,SE,131,0.0,0.0,58,0.00,,,0.00,WeatherCatV1.15B25,2013-09-07 05:16:00,
2013-09-07 00:21:00,81.4,65.7,29.86,SE,128,0.0,0.0,59,0.00,,,0.00,WeatherCatV1.15B25,2013-09-07 05:21:00,
2013-09-07 00:26:00,81.4,65.2,29.86,ENE,69,0.0,2.0,58,0.00,,,0.00,WeatherCatV1.15B25,2013-09-07 05:26:00,
2013-09-07 00:31:00,81.4,64.7,29.86,East,82,0.0,0.0,57,0.00,,,0.00,WeatherCatV1.15B25,2013-09-07 05:31:00,
2013-09-07 00:36:00,81.6,64.4,29.86,South,178,1.0,2.0,56,0.00,,,0.00,WeatherCatV1.15B25,2013-09-07 05:36:00,
2013-09-07 00:41:00,81.8,65.1,29.86,ESE,103,2.0,3.0,57,0.00,,,0.00,WeatherCatV1.15B25,2013-09-07 05:41:00,
2013-09-07 00:46:00,81.9,65.1,29.86,SE,140,0.0,3.0,57,0.00,,,0.00,WeatherCatV1.15B25,2013-09-07 05:46:00,
2013-09-07 00:51:00,81.9,65.1,29.86,SE,136,0.0,0.0,57,0.00,,,0.00,WeatherCatV1.15B25,2013-09-07 05:51:00,
2013-09-07 00:56:00,81.8,65.6,29.86,SE,135,0.0,0.0,58,0.00,,,0.00,WeatherCatV1.15B25,2013-09-07 05:56:00,
2013-09-07 01:01:00,81.7,65.5,29.86,SE,135,0.0,0.0,58,0.00,,,0.00,WeatherCatV1.15B25,2013-09-07 06:01:00,
2013-09-07 01:06:00,81.6,65.9,29.86,SSE,155,0.0,1.0,59,0.00,,,0.00,WeatherCatV1.15B25,2013-09-07 06:06:00,
2013-09-07 01:11:00,81.3,65.6,29.86,SSE,154,0.0,0.0,59,0.00,,,0.00,WeatherCatV1.15B25,2013-09-07 06:11:00,
2013-09-07 01:16:00,81.1,65.9,29.87,SE,137,0.0,3.0,60,0.00,,,0.00,WeatherCatV1.15B25,2013-09-07 06:16:00,
2013-09-07 01:21:00,80.9,66.2,29.87,SSE,160,0.0,0.0,61,0.00,,,0.00,WeatherCatV1.15B25,2013-09-07 06:21:00,
2013-09-07 01:26:00,80.7,66.0,29.87,SSE,153,0.0,1.0,61,0.00,,,0.00,WeatherCatV1.15B25,2013-09-07 06:26:00,
2013-09-07 01:31:00,80.8,66.5,29.87,South,180,0.0,1.0,62,0.00,,,0.00,WeatherCatV1.15B25,2013-09-07 06:31:00,
2013-09-07 01:36:00,80.9,66.6,29.87,South,182,2.0,2.0,62,0.00,,,0.00,WeatherCatV1.15B25,2013-09-07 06:36:00,
2013-09-07 01:41:00,81.0,66.7,29.87,SSW,209,0.0,3.0,62,0.00,,,0.00,WeatherCatV1.15B25,2013-09-07 06:41:00,
2013-09-07 01:46:00,81.2,66.9,29.87,SSE,160,2.0,4.0,62,0.00,,,0.00,WeatherCatV1.15B25,2013-09-07 06:46:00,
2013-09-07 01:51:00,81.2,66.9,29.87,SSW,208,0.0,1.0,62,0.00,,,0.00,WeatherCatV1.15B25,2013-09-07 06:51:00,
2013-09-07 01:56:00,81.3,67.0,29.87,WSW,249,0.0,0.0,62,0.00,,,0.00,WeatherCatV1.15B25,2013-09-07 06:56:00,
2013-09-07 02:01:00,81.2,66.9,29.87,South,176,0.0,1.0,62,0.00,,,0.00,WeatherCatV1.15B25,2013-09-07 07:01:00,
2013-09-07 02:06:00,81.2,66.9,29.87,SSE,155,0.0,3.0,62,0.00,,,0.00,WeatherCatV1.15B25,2013-09-07 07:06:00,
2013-09-07 02:11:00,81.1,67.3,29.87,SSE,155,0.0,0.0,63,0.00,,,0.00,WeatherCatV1.15B25,2013-09-07 07:11:00,
2013-09-07 02:16:00,81.0,67.6,29.88,SSE,157,0.0,0.0,64,0.00,,,0.00,WeatherCatV1.15B25,2013-09-07 07:16:00,
2013-09-07 02:21:00,80.8,67.5,29.88,SSE,157,0.0,0.0,64,0.00,,,0.00,WeatherCatV1.15B25,2013-09-07 07:21:00,
2013-09-07 02:26:00,80.6,67.3,29.88,SSE,157,0.0,0.0,64,0.00,,,0.00,WeatherCatV1.15B25,2013-09-07 07:26:00,
2013-09-07 02:31:00,80.5,68.1,29.88,SSE,157,0.0,0.0,66,0.00,,,0.00,WeatherCatV1.15B25,2013-09-07 07:31:00,
2013-09-07 02:36:00,80.2,67.8,29.88,SSE,157,0.0,0.0,66,0.00,,,0.00,WeatherCatV1.15B25,2013-09-07 07:36:00,
2013-09-07 02:41:00,80.0,67.6,29.88,SSE,157,0.0,0.0,66,0.00,,,0.00,WeatherCatV1.15B25,2013-09-07 07:41:00,
2013-09-07 02:46:00,79.9,67.9,29.88,SSE,157,0.0,0.0,67,0.00,,,0.00,WeatherCatV1.15B25,2013-09-07 07:46:00,
2013-09-07 02:51:00,79.7,68.2,29.88,SE,144,0.0,0.0,68,0.00,,,0.00,WeatherCatV1.15B25,2013-09-07 07:51:00,
2013-09-07 02:56:00,79.5,68.0,29.88,SSE,148,0.0,0.0,68,0.00,,,0.00,WeatherCatV1.15B25,2013-09-07 07:56:00,
2013-09-07 03:01:00,79.4,68.3,29.88,SSE,151,0.0,0.0,69,0.00,,,0.00,WeatherCatV1.15B25,2013-09-07 08:01:00,
2013-09-07 03:06:00,79.3,68.2,29.88,SSE,151,0.0,0.0,69,0.00,,,0.00,WeatherCatV1.15B25,2013-09-07 08:06:00,
2013-09-07 03:11:00,79.2,68.1,29.88,SSE,151,0.0,0.0,69,0.00,,,0.00,WeatherCatV1.15B25,2013-09-07 08:11:00,
2013-09-07 03:16:00,79.1,68.5,29.88,SSE,151,0.0,0.0,70,0.00,,,0.00,WeatherCatV1.15B25,2013-09-07 08:16:00,
2013-09-07 03:21:00,78.9,68.3,29.88,SSE,151,0.0,0.0,70,0.00,,,0.00,WeatherCatV1.15B25,2013-09-07 08:21:00,
2013-09-07 03:26:00,78.9,68.3,29.88,SSE,151,0.0,0.0,70,0.00,,,0.00,WeatherCatV1.15B25,2013-09-07 08:26:00,
2013-09-07 03:31:00,78.8,68.2,29.88,SSE,151,0.0,0.0,70,0.00,,,0.00,WeatherCatV1.15B25,2013-09-07 08:31:00,
2013-09-07 03:36:00,78.8,68.6,29.88,SSE,151,0.0,0.0,71,0.00,,,0.00,WeatherCatV1.15B25,2013-09-07 08:36:00,
2013-09-07 03:41:00,78.8,68.6,29.88,SSE,151,0.0,0.0,71,0.00,,,0.00,WeatherCatV1.15B25,2013-09-07 08:41:00,
2013-09-07 03:46:00,78.7,68.5,29.88,SSE,151,0.0,0.0,71,0.00,,,0.00,WeatherCatV1.15B25,2013-09-07 08:46:00,
2013-09-07 03:51:00,78.7,68.9,29.88,SSE,151,0.0,0.0,72,0.00,,,0.00,WeatherCatV1.15B25,2013-09-07 08:51:00,
2013-09-07 03:56:00,78.6,68.8,29.88,SSE,150,0.0,0.0,72,0.00,,,0.00,WeatherCatV1.15B25,2013-09-07 08:56:00,
2013-09-07 04:01:00,78.6,68.8,29.87,SSE,150,0.0,0.0,72,0.00,,,0.00,WeatherCatV1.15B25,2013-09-07 09:01:00,
2013-09-07 04:06:00,78.6,68.8,29.87,SSE,150,0.0,0.0,72,0.00,,,0.00,WeatherCatV1.15B25,2013-09-07 09:06:00,
2013-09-07 04:11:00,78.5,69.1,29.87,SSE,150,0.0,0.0,73,0.00,,,0.00,WeatherCatV1.15B25,2013-09-07 09:11:00,
2013-09-07 04:16:00,78.5,69.1,29.88,SSE,150,0.0,0.0,73,0.00,,,0.00,WeatherCatV1.15B25,2013-09-07 09:16:00,
2013-09-07 04:21:00,78.3,68.9,29.88,SSE,150,0.0,0.0,73,0.00,,,0.00,WeatherCatV1.15B25,2013-09-07 09:21:00,
2013-09-07 04:26:00,78.2,68.8,29.88,SSE,150,0.0,0.0,73,0.00,,,0.00,WeatherCatV1.15B25,2013-09-07 09:26:00,
2013-09-07 04:31:00,78.1,68.7,29.88,SSE,150,0.0,0.0,73,0.00,,,0.00,WeatherCatV1.15B25,2013-09-07 09:31:00,
2013-09-07 04:36:00,78.0,69.0,29.88,SSE,150,0.0,0.0,74,0.00,,,0.00,WeatherCatV1.15B25,2013-09-07 09:36:00,
2013-09-07 04:41:00,77.9,68.9,29.88,SSE,150,0.0,0.0,74,0.00,,,0.00,WeatherCatV1.15B25,2013-09-07 09:41:00,
2013-09-07 04:46:00,77.9,69.3,29.88,SSE,150,0.0,0.0,75,0.00,,,0.00,WeatherCatV1.15B25,2013-09-07 09:46:00,
2013-09-07 04:51:00,77.8,69.2,29.88,SSE,150,0.0,0.0,75,0.00,,,0.00,WeatherCatV1.15B25,2013-09-07 09:51:00,
2013-09-07 04:56:00,77.6,69.0,29.88,SSE,150,0.0,0.0,75,0.00,,,0.00,WeatherCatV1.15B25,2013-09-07 09:56:00,
2013-09-07 05:01:00,77.5,68.9,29.89,SE,140,0.0,1.0,75,0.00,,,0.00,WeatherCatV1.15B25,2013-09-07 10:01:00,
2013-09-07 05:06:00,77.4,68.8,29.89,SE,140,0.0,0.0,75,0.00,,,0.00,WeatherCatV1.15B25,2013-09-07 10:06:00,
2013-09-07 05:11:00,77.3,69.1,29.89,SE,140,0.0,0.0,76,0.00,,,0.00,WeatherCatV1.15B25,2013-09-07 10:11:00,
2013-09-07 05:16:00,77.3,69.1,29.89,SE,140,0.0,0.0,76,0.00,,,0.00,WeatherCatV1.15B25,2013-09-07 10:16:00,
2013-09-07 05:21:00,77.1,68.9,29.89,SSE,149,0.0,2.0,76,0.00,,,0.00,WeatherCatV1.15B25,2013-09-07 10:21:00,
2013-09-07 05:26:00,77.1,68.9,29.89,SSE,150,0.0,0.0,76,0.00,,,0.00,WeatherCatV1.15B25,2013-09-07 10:26:00,
2013-09-07 05:31:00,77.0,69.2,29.89,SSE,149,0.0,1.0,77,0.00,,,0.00,WeatherCatV1.15B25,2013-09-07 10:31:00,
2013-09-07 05:36:00,76.9,69.1,29.89,SE,134,0.0,0.0,77,0.00,,,0.00,WeatherCatV1.15B25,2013-09-07 10:36:00,
2013-09-07 05:42:00,76.8,69.0,29.89,SE,134,0.0,0.0,77,0.00,,,0.00,WeatherCatV1.15B25,2013-09-07 10:42:00,
2013-09-07 05:47:00,76.8,69.0,29.89,SE,134,0.0,0.0,77,0.00,,,0.00,WeatherCatV1.15B25,2013-09-07 10:47:00,
2013-09-07 05:52:00,76.8,69.0,29.89,SE,134,0.0,0.0,77,0.00,,,0.00,WeatherCatV1.15B25,2013-09-07 10:52:00,
2013-09-07 05:57:00,76.7,68.9,29.89,SE,134,0.0,0.0,77,0.00,,,0.00,WeatherCatV1.15B25,2013-09-07 10:57:00,
2013-09-07 06:02:00,76.6,69.2,29.90,SE,134,0.0,1.0,78,0.00,,,0.00,WeatherCatV1.15B25,2013-09-07 11:02:00,
2013-09-07 06:07:00,76.5,69.1,29.90,SE,134,0.0,0.0,78,0.00,,,0.00,WeatherCatV1.15B25,2013-09-07 11:07:00,
2013-09-07 06:12:00,76.4,69.4,29.90,SE,133,1.0,1.0,79,0.00,,,0.00,WeatherCatV1.15B25,2013-09-07 11:12:00,
2013-09-07 06:17:00,76.2,69.2,29.90,SSE,167,0.0,0.0,79,0.00,,,0.00,WeatherCatV1.15B25,2013-09-07 11:17:00,
2013-09-07 06:22:00,76.1,69.1,29.90,SSE,167,0.0,0.0,79,0.00,,,0.00,WeatherCatV1.15B25,2013-09-07 11:22:00,
2013-09-07 06:27:00,76.0,69.0,29.90,SSE,167,0.0,0.0,79,0.00,,,0.00,WeatherCatV1.15B25,2013-09-07 11:27:00,
2013-09-07 06:32:00,76.0,69.4,29.91,SSE,167,0.0,0.0,80,0.00,,,0.00,WeatherCatV1.15B25,2013-09-07 11:32:00,
2013-09-07 06:37:00,75.9,69.3,29.91,SSE,158,0.0,0.0,80,0.00,,,0.00,WeatherCatV1.15B25,2013-09-07 11:37:00,
2013-09-07 06:42:00,75.9,69.3,29.91,SSE,158,0.0,0.0,80,0.00,,,0.00,WeatherCatV1.15B25,2013-09-07 11:42:00,
2013-09-07 06:47:00,75.8,69.2,29.91,SSE,158,0.0,0.0,80,0.00,,,0.00,WeatherCatV1.15B25,2013-09-07 11:47:00,
2013-09-07 06:52:00,75.7,69.1,29.91,SSE,158,0.0,0.0,80,0.00,,,0.00,WeatherCatV1.15B25,2013-09-07 11:52:00,
2013-09-07 06:57:00,75.7,69.4,29.91,SSE,158,0.0,0.0,81,0.00,,,0.00,WeatherCatV1.15B25,2013-09-07 11:57:00,
2013-09-07 07:02:00,75.6,69.3,29.91,SSE,158,0.0,0.0,81,0.00,,,0.00,WeatherCatV1.15B25,2013-09-07 12:02:00,
2013-09-07 07:07:00,75.6,69.3,29.91,SSE,158,0.0,0.0,81,0.00,,,0.00,WeatherCatV1.15B25,2013-09-07 12:07:00,
2013-09-07 07:12:00,75.5,69.6,29.91,SSE,158,0.0,0.0,82,0.00,,,0.00,WeatherCatV1.15B25,2013-09-07 12:12:00,
2013-09-07 07:17:00,75.5,69.6,29.91,SSE,157,0.0,0.0,82,0.00,,,0.00,WeatherCatV1.15B25,2013-09-07 12:17:00,
2013-09-07 07:22:00,75.5,69.6,29.91,SSE,157,0.0,0.0,82,0.00,,,0.00,WeatherCatV1.15B25,2013-09-07 12:22:00,
2013-09-07 07:27:00,75.5,69.6,29.91,SSE,156,0.0,0.0,82,0.00,,,0.00,WeatherCatV1.15B25,2013-09-07 12:27:00,
2013-09-07 07:32:00,75.5,69.6,29.92,SSE,157,0.0,1.0,82,0.00,,,0.00,WeatherCatV1.15B25,2013-09-07 12:32:00,
2013-09-07 07:37:00,75.5,69.6,29.92,SSE,155,0.0,0.0,82,0.00,,,0.00,WeatherCatV1.15B25,2013-09-07 12:37:00,
2013-09-07 07:42:00,75.6,69.7,29.92,SSE,155,0.0,0.0,82,0.00,,,0.00,WeatherCatV1.15B25,2013-09-07 12:42:00,
2013-09-07 07:47:00,75.6,69.7,29.92,SSE,155,0.0,0.0,82,0.00,,,0.00,WeatherCatV1.15B25,2013-09-07 12:47:00,
2013-09-07 07:52:00,75.7,69.8,29.92,SSE,153,3.0,4.0,82,0.00,,,0.00,WeatherCatV1.15B25,2013-09-07 12:52:00,
2013-09-07 07:57:00,75.8,69.9,29.92,SSE,157,0.0,3.0,82,0.00,,,0.00,WeatherCatV1.15B25,2013-09-07 12:57:00,
2013-09-07 08:02:00,76.0,70.1,29.92,SSE,161,2.0,3.0,82,0.00,,,0.00,WeatherCatV1.15B25,2013-09-07 13:02:00,
2013-09-07 08:07:00,76.2,70.3,29.92,South,174,0.0,0.0,82,0.00,,,0.00,WeatherCatV1.15B25,2013-09-07 13:07:00,
2013-09-07 08:12:00,76.5,70.6,29.92,SSE,165,0.0,1.0,82,0.00,,,0.00,WeatherCatV1.15B25,2013-09-07 13:12:00,
2013-09-07 08:17:00,76.7,70.4,29.93,SSE,153,0.0,4.0,81,0.00,,,0.00,WeatherCatV1.15B25,2013-09-07 13:17:00,
2013-09-07 08:22:00,76.9,70.6,29.93,SE,134,0.0,1.0,81,0.00,,,0.00,WeatherCatV1.15B25,2013-09-07 13:22:00,
2013-09-07 08:27:00,77.2,70.5,29.93,SSE,161,0.0,1.0,80,0.00,,,0.00,WeatherCatV1.15B25,2013-09-07 13:27:00,
2013-09-07 08:32:00,77.4,70.7,29.93,South,177,0.0,1.0,80,0.00,,,0.00,WeatherCatV1.15B25,2013-09-07 13:32:00,
2013-09-07 08:37:00,77.6,70.9,29.93,SSE,161,0.0,1.0,80,0.00,,,0.00,WeatherCatV1.15B25,2013-09-07 13:37:00,
2013-09-07 08:42:00,78.0,71.3,29.93,SSE,155,0.0,3.0,80,0.00,,,0.00,WeatherCatV1.15B25,2013-09-07 13:42:00,
2013-09-07 08:47:00,78.3,71.2,29.93,SE,144,0.0,0.0,79,0.00,,,0.00,WeatherCatV1.15B25,2013-09-07 13:47:00,
2013-09-07 08:52:00,78.7,71.6,29.93,SSE,167,2.0,2.0,79,0.00,,,0.00,WeatherCatV1.15B25,2013-09-07 13:52:00,
2013-09-07 08:57:00,79.1,71.6,29.93,SSW,192,2.0,4.0,78,0.00,,,0.00,WeatherCatV1.15B25,2013-09-07 13:57:00,
2013-09-07 09:02:00,79.6,71.7,29.94,SSE,153,0.0,0.0,77,0.00,,,0.00,WeatherCatV1.15B25,2013-09-07 14:02:00,
2013-09-07 09:07:00,79.9,72.0,29.94,South,169,0.0,0.0,77,0.00,,,0.00,WeatherCatV1.15B25,2013-09-07 14:07:00,
2013-09-07 09:12:00,80.3,72.0,29.94,SSW,205,0.0,1.0,76,0.00,,,0.00,WeatherCatV1.15B25,2013-09-07 14:12:00,
2013-09-07 09:17:00,80.7,72.0,29.94,SW,221,1.0,3.0,75,0.00,,,0.00,WeatherCatV1.15B25,2013-09-07 14:17:00,
2013-09-07 09:22:00,81.0,72.3,29.94,South,178,0.0,3.0,75,0.00,,,0.00,WeatherCatV1.15B25,2013-09-07 14:22:00,
2013-09-07 09:27:00,81.3,72.2,29.94,South,182,0.0,5.0,74,0.00,,,0.00,WeatherCatV1.15B25,2013-09-07 14:27:00,
2013-09-07 09:32:00,81.6,72.5,29.94,SW,216,0.0,2.0,74,0.00,,,0.00,WeatherCatV1.15B25,2013-09-07 14:32:00,
2013-09-07 09:37:00,81.9,72.8,29.94,SSE,161,2.0,3.0,74,0.00,,,0.00,WeatherCatV1.15B25,2013-09-07 14:37:00,
2013-09-07 09:42:00,82.1,72.6,29.94,South,184,0.0,0.0,73,0.00,,,0.00,WeatherCatV1.15B25,2013-09-07 14:42:00,
2013-09-07 09:47:00,82.4,73.3,29.94,SSW,196,0.0,0.0,74,0.00,,,0.00,WeatherCatV1.15B25,2013-09-07 14:47:00,
2013-09-07 09:52:00,83.0,73.0,29.94,SW,221,0.0,5.0,72,0.00,,,0.00,WeatherCatV1.15B25,2013-09-07 14:52:00,
2013-09-07 09:57:00,83.5,73.5,29.94,SSE,155,0.0,0.0,72,0.00,,,0.00,WeatherCatV1.15B25,2013-09-07 14:57:00,
2013-09-07 10:02:00,84.0,73.6,29.94,West,267,0.0,0.0,71,0.00,,,0.00,WeatherCatV1.15B25,2013-09-07 15:02:00,
2013-09-07 10:07:00,84.6,73.7,29.94,WSW,257,0.0,4.0,70,0.00,,,0.00,WeatherCatV1.15B25,2013-09-07 15:07:00,
2013-09-07 10:12:00,85.2,73.4,29.94,WSW,246,0.0,0.0,68,0.00,,,0.00,WeatherCatV1.15B25,2013-09-07 15:12:00,
2013-09-07 10:17:00,85.7,74.3,29.95,SW,222,0.0,0.0,69,0.00,,,0.00,WeatherCatV1.15B25,2013-09-07 15:17:00,
2013-09-07 10:22:00,86.3,74.0,29.95,SSE,163,1.0,4.0,67,0.00,,,0.00,WeatherCatV1.15B25,2013-09-07 15:22:00,
2013-09-07 10:27:00,86.9,73.2,29.95,SSW,209,0.0,2.0,64,0.00,,,0.00,WeatherCatV1.15B25,2013-09-07 15:27:00,
2013-09-07 10:32:00,87.4,73.2,29.95,SW,217,2.0,4.0,63,0.00,,,0.00,WeatherCatV1.15B25,2013-09-07 15:32:00,
2013-09-07 10:37:00,88.1,73.4,29.95,SW,232,0.0,3.0,62,0.00,,,0.00,WeatherCatV1.15B25,2013-09-07 15:37:00,
2013-09-07 10:42:00,88.9,73.7,29.95,WSW,244,2.0,4.0,61,0.00,,,0.00,WeatherCatV1.15B25,2013-09-07 15:42:00,
2013-09-07 10:47:00,89.6,74.3,29.95,SW,232,3.0,5.0,61,0.00,,,0.00,WeatherCatV1.15B25,2013-09-07 15:47:00,
2013-09-07 10:52:00,90.1,73.3,29.95,SW,215,0.0,3.0,58,0.00,,,0.00,WeatherCatV1.15B25,2013-09-07 15:52:00,
2013-09-07 10:57:00,90.7,74.4,29.95,SW,221,0.0,5.0,59,0.00,,,0.00,WeatherCatV1.15B25,2013-09-07 15:57:00,
2013-09-07 11:02:00,91.2,73.8,29.95,SSW,196,0.0,3.0,57,0.00,,,0.00,WeatherCatV1.15B25,2013-09-07 16:02:00,
2013-09-07 11:07:00,91.7,74.3,29.95,SW,229,0.0,5.0,57,0.00,,,0.00,WeatherCatV1.15B25,2013-09-07 16:07:00,
2013-09-07 11:12:00,92.1,73.6,29.95,South,172,2.0,4.0,55,0.00,,,0.00,WeatherCatV1.15B25,2013-09-07 16:12:00,
2013-09-07 11:17:00,92.6,73.5,29.95,SSW,211,3.0,4.0,54,0.00,,,0.00,WeatherCatV1.15B25,2013-09-07 16:17:00,
2013-09-07 11:22:00,92.9,73.8,29.95,SSE,157,0.0,0.0,54,0.00,,,0.00,WeatherCatV1.15B25,2013-09-07 16:22:00,
2013-09-07 11:27:00,93.3,74.1,29.95,WSW,240,5.0,6.0,54,0.00,,,0.00,WeatherCatV1.15B25,2013-09-07 16:27:00,
2013-09-07 11:32:00,93.9,74.1,29.95,WSW,253,0.0,3.0,53,0.00,,,0.00,WeatherCatV1.15B25,2013-09-07 16:32:00,
2013-09-07 11:37:00,94.3,72.8,29.95,WNW,288,2.0,5.0,50,0.00,,,0.00,WeatherCatV1.15B25,2013-09-07 16:37:00,
2013-09-07 11:42:00,94.9,73.3,29.95,SW,227,0.0,5.0,50,0.00,,,0.00,WeatherCatV1.15B25,2013-09-07 16:42:00,
2013-09-07 11:47:00,95.1,72.9,29.95,SW,219,1.0,5.0,49,0.00,,,0.00,WeatherCatV1.15B25,2013-09-07 16:47:00,
2013-09-07 11:52:00,95.5,72.6,29.95,WNW,286,0.0,3.0,48,0.00,,,0.00,WeatherCatV1.15B25,2013-09-07 16:52:00,
2013-09-07 11:57:00,95.8,72.9,29.95,WSW,238,3.0,5.0,48,0.00,,,0.00,WeatherCatV1.15B25,2013-09-07 16:57:00,
2013-09-07 12:02:00,96.0,73.7,29.94,South,186,0.0,1.0,49,0.00,,,0.00,WeatherCatV1.15B25,2013-09-07 17:02:00,
2013-09-07 12:07:00,96.3,72.1,29.94,SW,233,0.0,3.0,46,0.00,,,0.00,WeatherCatV1.15B25,2013-09-07 17:07:00,
2013-09-07 12:12:00,96.7,73.1,29.94,NNE,16,0.0,1.0,47,0.00,,,0.00,WeatherCatV1.15B25,2013-09-07 17:12:00,
2013-09-07 12:17:00,96.9,71.3,29.93,WSW,258,2.0,2.0,44,0.00,,,0.00,WeatherCatV1.15B25,2013-09-07 17:17:00,
2013-09-07 12:22:00,97.1,72.8,29.93,West,267,4.0,4.0,46,0.00,,,0.00,WeatherCatV1.15B25,2013-09-07 17:22:00,
2013-09-07 12:27:00,97.3,72.3,29.93,West,272,4.0,6.0,45,0.00,,,0.00,WeatherCatV1.15B25,2013-09-07 17:27:00,
2013-09-07 12:32:00,97.4,71.8,29.93,SW,227,2.0,6.0,44,0.00,,,0.00,WeatherCatV1.15B25,2013-09-07 17:32:00,
2013-09-07 12:37:00,97.0,70.0,29.93,SSW,211,0.0,4.0,42,0.00,,,0.00,WeatherCatV1.15B25,2013-09-07 17:37:00,
2013-09-07 12:42:00,97.1,72.2,29.93,South,171,0.0,0.0,45,0.00,,,0.00,WeatherCatV1.15B25,2013-09-07 17:42:00,
2013-09-07 12:47:00,97.6,71.9,29.92,NW,312,0.0,0.0,44,0.00,,,0.00,WeatherCatV1.15B25,2013-09-07 17:47:00,
2013-09-07 12:52:00,98.0,70.2,29.92,West,271,0.0,5.0,41,0.00,,,0.00,WeatherCatV1.15B25,2013-09-07 17:52:00,
2013-09-07 12:57:00,98.3,69.8,29.92,SSW,209,4.0,11.0,40,0.00,,,0.00,WeatherCatV1.15B25,2013-09-07 17:57:00,
2013-09-07 13:02:00,98.3,69.8,29.92,SW,229,0.0,3.0,40,0.00,,,0.00,WeatherCatV1.15B25,2013-09-07 18:02:00,
2013-09-07 13:07:00,98.5,71.4,29.92,South,182,0.0,3.0,42,0.00,,,0.00,WeatherCatV1.15B25,2013-09-07 18:07:00,
2013-09-07 13:12:00,98.4,70.6,29.92,SSW,200,0.0,3.0,41,0.00,,,0.00,WeatherCatV1.15B25,2013-09-07 18:12:00,
2013-09-07 13:17:00,98.5,69.2,29.91,SSE,157,0.0,0.0,39,0.00,,,0.00,WeatherCatV1.15B25,2013-09-07 18:17:00,
2013-09-07 13:22:00,98.4,69.1,29.91,SW,234,1.0,4.0,39,0.00,,,0.00,WeatherCatV1.15B25,2013-09-07 18:22:00,
2013-09-07 13:27:00,97.8,68.6,29.91,SW,221,0.0,0.0,39,0.00,,,0.00,WeatherCatV1.15B25,2013-09-07 18:27:00,
2013-09-07 13:32:00,97.8,70.0,29.90,WSW,248,1.0,9.0,41,0.00,,,0.00,WeatherCatV1.15B25,2013-09-07 18:32:00,
2013-09-07 13:37:00,98.2,69.7,29.90,WSW,257,3.0,5.0,40,0.00,,,0.00,WeatherCatV1.15B25,2013-09-07 18:37:00,
2013-09-07 13:42:00,98.8,69.5,29.90,SSE,165,5.0,5.0,39,0.00,,,0.00,WeatherCatV1.15B25,2013-09-07 18:42:00,
2013-09-07 13:47:00,99.1,69.7,29.90,WSW,247,3.0,4.0,39,0.00,,,0.00,WeatherCatV1.15B25,2013-09-07 18:47:00,
2013-09-07 13:52:00,99.5,67.7,29.90,SE,136,0.0,3.0,36,0.00,,,0.00,WeatherCatV1.15B25,2013-09-07 18:52:00,
2013-09-07 13:57:00,99.8,68.8,29.90,SW,234,0.0,6.0,37,0.00,,,0.00,WeatherCatV1.15B25,2013-09-07 18:57:00,
2013-09-07 14:02:00,99.4,67.7,29.89,SW,220,3.0,5.0,36,0.00,,,0.00,WeatherCatV1.15B25,2013-09-07 19:02:00,
2013-09-07 14:07:00,98.7,67.8,29.89,SW,215,1.0,1.0,37,0.00,,,0.00,WeatherCatV1.15B25,2013-09-07 19:07:00,
2013-09-07 14:12:00,98.2,68.9,29.89,SSW,212,0.0,1.0,39,0.00,,,0.00,WeatherCatV1.15B25,2013-09-07 19:12:00,
2013-09-07 14:17:00,98.1,69.6,29.88,SSW,206,0.0,0.0,40,0.00,,,0.00,WeatherCatV1.15B25,2013-09-07 19:17:00,
2013-09-07 14:22:00,98.5,69.2,29.88,SW,228,0.0,6.0,39,0.00,,,0.00,WeatherCatV1.15B25,2013-09-07 19:22:00,
2013-09-07 14:27:00,98.6,68.5,29.88,SW,230,0.0,2.0,38,0.00,,,0.00,WeatherCatV1.15B25,2013-09-07 19:27:00,
2013-09-07 14:32:00,98.8,68.7,29.87,SE,125,2.0,6.0,38,0.00,,,0.00,WeatherCatV1.15B25,2013-09-07 19:32:00,
2013-09-07 14:37:00,99.2,69.8,29.87,SE,146,0.0,4.0,39,0.00,,,0.00,WeatherCatV1.15B25,2013-09-07 19:37:00,
2013-09-07 14:42:00,99.8,68.8,29.87,SE,146,0.0,0.0,37,0.00,,,0.00,WeatherCatV1.15B25,2013-09-07 19:42:00,
2013-09-07 14:47:00,100.1,68.3,29.86,WSW,254,0.0,5.0,36,0.00,,,0.00,WeatherCatV1.15B25,2013-09-07 19:47:00,
2013-09-07 14:52:00,100.4,68.5,29.86,WSW,246,4.0,5.0,36,0.00,,,0.00,WeatherCatV1.15B25,2013-09-07 19:52:00,
2013-09-07 14:57:00,100.5,69.4,29.86,SSW,213,0.0,5.0,37,0.00,,,0.00,WeatherCatV1.15B25,2013-09-07 19:57:00,
2013-09-07 15:02:00,100.8,68.9,29.85,SSW,209,0.0,1.0,36,0.00,,,0.00,WeatherCatV1.15B25,2013-09-07 20:02:00,
2013-09-07 15:07:00,101.2,67.6,29.85,ESE,117,0.0,0.0,34,0.00,,,0.00,WeatherCatV1.15B25,2013-09-07 20:07:00,
2013-09-07 15:12:00,101.7,67.1,29.85,South,175,0.0,1.0,33,0.00,,,0.00,WeatherCatV1.15B25,2013-09-07 20:12:00,
2013-09-07 15:17:00,101.9,66.4,29.85,WNW,292,1.0,1.0,32,0.00,,,0.00,WeatherCatV1.15B25,2013-09-07 20:17:00,
2013-09-07 15:22:00,102.0,70.7,29.85,West,274,1.0,4.0,37,0.00,,,0.00,WeatherCatV1.15B25,2013-09-07 20:22:00,
2013-09-07 15:27:00,101.5,70.3,29.85,SW,217,3.0,4.0,37,0.00,,,0.00,WeatherCatV1.15B25,2013-09-07 20:27:00,
2013-09-07 15:32:00,101.1,70.7,29.84,West,263,0.0,1.0,38,0.00,,,0.00,WeatherCatV1.15B25,2013-09-07 20:32:00,
2013-09-07 15:37:00,100.7,68.8,29.84,South,189,0.0,2.0,36,0.00,,,0.00,WeatherCatV1.15B25,2013-09-07 20:37:00,
2013-09-07 15:42:00,100.8,68.9,29.84,NNE,14,0.0,3.0,36,0.00,,,0.00,WeatherCatV1.15B25,2013-09-07 20:42:00,
2013-09-07 15:47:00,101.0,68.2,29.84,NW,319,3.0,4.0,35,0.00,,,0.00,WeatherCatV1.15B25,2013-09-07 20:47:00,
2013-09-07 15:52:00,101.2,68.4,29.84,North,0,0.0,0.0,35,0.00,,,0.00,WeatherCatV1.15B25,2013-09-07 20:52:00,
2013-09-07 15:57:00,101.4,70.2,29.84,North,5,0.0,3.0,37,0.00,,,0.00,WeatherCatV1.15B25,2013-09-07 20:57:00,
2013-09-07 16:02:00,101.6,68.8,29.82,South,180,2.0,3.0,35,0.00,,,0.00,WeatherCatV1.15B25,2013-09-07 21:02:00,
2013-09-07 16:07:00,101.7,65.3,29.82,SSE,168,6.0,6.0,31,0.00,,,0.00,WeatherCatV1.15B25,2013-09-07 21:07:00,
2013-09-07 16:12:00,101.8,67.2,29.82,SE,128,3.0,7.0,33,0.00,,,0.00,WeatherCatV1.15B25,2013-09-07 21:12:00,
2013-09-07 16:17:00,101.8,68.1,29.82,SE,136,10.0,10.0,34,0.00,,,0.00,WeatherCatV1.15B25,2013-09-07 21:17:00,
2013-09-07 16:22:00,101.5,67.0,29.82,SSE,167,2.0,3.0,33,0.00,,,0.00,WeatherCatV1.15B25,2013-09-07 21:22:00,
2013-09-07 16:27:00,101.5,66.1,29.82,ESE,116,3.0,9.0,32,0.00,,,0.00,WeatherCatV1.15B25,2013-09-07 21:27:00,
2013-09-07 16:32:00,101.2,65.8,29.82,SE,146,0.0,5.0,32,0.00,,,0.00,WeatherCatV1.15B25,2013-09-07 21:32:00,
2013-09-07 16:37:00,101.0,66.5,29.82,SSE,156,0.0,1.0,33,0.00,,,0.00,WeatherCatV1.15B25,2013-09-07 21:37:00,
2013-09-07 16:42:00,100.7,64.5,29.82,NE,48,0.0,4.0,31,0.00,,,0.00,WeatherCatV1.15B25,2013-09-07 21:42:00,
2013-09-07 16:47:00,100.3,63.2,29.82,ESE,102,0.0,3.0,30,0.00,,,0.00,WeatherCatV1.15B25,2013-09-07 21:47:00,
2013-09-07 16:52:00,100.4,63.3,29.82,South,172,0.0,4.0,30,0.00,,,0.00,WeatherCatV1.15B25,2013-09-07 21:52:00,
2013-09-07 16:57:00,100.7,64.5,29.82,NNE,13,0.0,4.0,31,0.00,,,0.00,WeatherCatV1.15B25,2013-09-07 21:57:00,
2013-09-07 17:02:00,101.0,65.6,29.82,NE,34,0.0,4.0,32,0.00,,,0.00,WeatherCatV1.15B25,2013-09-07 22:02:00,
2013-09-07 17:07:00,101.3,65.0,29.82,ESE,109,0.0,1.0,31,0.00,,,0.00,WeatherCatV1.15B25,2013-09-07 22:07:00,
2013-09-07 17:12:00,101.4,66.9,29.82,SSE,158,0.0,5.0,33,0.00,,,0.00,WeatherCatV1.15B25,2013-09-07 22:12:00,
2013-09-07 17:17:00,101.2,65.8,29.82,ENE,57,1.0,4.0,32,0.00,,,0.00,WeatherCatV1.15B25,2013-09-07 22:17:00,
2013-09-07 17:22:00,100.9,64.6,29.82,SSE,148,0.0,0.0,31,0.00,,,0.00,WeatherCatV1.15B25,2013-09-07 22:22:00,
2013-09-07 17:27:00,100.5,66.1,29.82,ESE,106,0.0,0.0,33,0.00,,,0.00,WeatherCatV1.15B25,2013-09-07 22:27:00,
2013-09-07 17:32:00,100.1,65.7,29.81,East,81,0.0,0.0,33,0.00,,,0.00,WeatherCatV1.15B25,2013-09-07 22:32:00,
2013-09-07 17:37:00,99.7,65.4,29.81,East,95,0.0,1.0,33,0.00,,,0.00,WeatherCatV1.15B25,2013-09-07 22:37:00,
2013-09-07 17:42:00,99.4,66.0,29.81,South,169,0.0,1.0,34,0.00,,,0.00,WeatherCatV1.15B25,2013-09-07 22:42:00,
2013-09-07 17:47:00,99.2,66.7,29.81,East,101,0.0,0.0,35,0.00,,,0.00,WeatherCatV1.15B25,2013-09-07 22:47:00,
2013-09-07 17:52:00,99.0,64.8,29.81,ESE,103,2.0,3.0,33,0.00,,,0.00,WeatherCatV1.15B25,2013-09-07 22:52:00,
2013-09-07 17:57:00,98.7,64.5,29.81,NE,35,0.0,0.0,33,0.00,,,0.00,WeatherCatV1.15B25,2013-09-07 22:57:00,
2013-09-07 18:02:00,98.6,64.4,29.81,SSE,147,0.0,0.0,33,0.00,,,0.00,WeatherCatV1.15B25,2013-09-07 23:02:00,
2013-09-07 18:07:00,98.3,64.2,29.81,ENE,67,0.0,0.0,33,0.00,,,0.00,WeatherCatV1.15B25,2013-09-07 23:07:00,
2013-09-07 18:12:00,98.1,64.9,29.81,ENE,73,0.0,0.0,34,0.00,,,0.00,WeatherCatV1.15B25,2013-09-07 23:12:00,
2013-09-07 18:17:00,97.9,63.8,29.81,ENE,77,0.0,0.0,33,0.00,,,0.00,WeatherCatV1.15B25,2013-09-07 23:17:00,
2013-09-07 18:22:00,97.8,63.8,29.81,SSW,195,1.0,1.0,33,0.00,,,0.00,WeatherCatV1.15B25,2013-09-07 23:22:00,
2013-09-07 18:27:00,97.6,64.4,29.81,NE,34,0.0,0.0,34,0.00,,,0.00,WeatherCatV1.15B25,2013-09-07 23:27:00,
2013-09-07 18:32:00,97.4,64.3,29.81,SE,146,0.0,1.0,34,0.00,,,0.00,WeatherCatV1.15B25,2013-09-07 23:32:00,
2013-09-07 18:37:00,97.2,64.9,29.81,South,172,0.0,3.0,35,0.00,,,0.00,WeatherCatV1.15B25,2013-09-07 23:37:00,
2013-09-07 18:42:00,96.9,64.7,29.81,South,172,0.0,0.0,35,0.00,,,0.00,WeatherCatV1.15B25,2013-09-07 23:42:00,
2013-09-07 18:47:00,96.7,64.5,29.81,South,170,0.0,0.0,35,0.00,,,0.00,WeatherCatV1.15B25,2013-09-07 23:47:00,
2013-09-07 18:52:00,96.5,65.9,29.81,South,170,0.0,0.0,37,0.00,,,0.00,WeatherCatV1.15B25,2013-09-07 23:52:00,
2013-09-07 18:57:00,96.2,64.9,29.81,SE,134,0.0,0.0,36,0.00,,,0.00,WeatherCatV1.15B25,2013-09-07 23:57:00,
2013-09-07 19:02:00,96.0,67.7,29.81,SE,134,0.0,0.0,40,0.00,,,0.00,WeatherCatV1.15B25,2013-09-08 00:02:00,
2013-09-07 19:07:00,95.8,66.8,29.81,SE,134,0.0,0.0,39,0.00,,,0.00,WeatherCatV1.15B25,2013-09-08 00:07:00,
2013-09-07 19:12:00,95.3,66.4,29.81,South,181,0.0,1.0,39,0.00,,,0.00,WeatherCatV1.15B25,2013-09-08 00:12:00,
2013-09-07 19:17:00,94.9,66.0,29.82,South,181,0.0,0.0,39,0.00,,,0.00,WeatherCatV1.15B25,2013-09-08 00:17:00,
2013-09-07 19:22:00,94.6,67.2,29.82,South,181,0.0,0.0,41,0.00,,,0.00,WeatherCatV1.15B25,2013-09-08 00:22:00,
2013-09-07 19:27:00,94.1,66.0,29.82,SSW,213,1.0,1.0,40,0.00,,,0.00,WeatherCatV1.15B25,2013-09-08 00:27:00,
2013-09-07 19:32:00,93.7,67.1,29.82,SSW,212,0.0,0.0,42,0.00,,,0.00,WeatherCatV1.15B25,2013-09-08 00:32:00,
2013-09-07 19:37:00,93.4,67.5,29.82,South,169,0.0,0.0,43,0.00,,,0.00,WeatherCatV1.15B25,2013-09-08 00:37:00,
2013-09-07 19:42:00,93.0,67.1,29.82,South,169,0.0,0.0,43,0.00,,,0.00,WeatherCatV1.15B25,2013-09-08 00:42:00,
2013-09-07 19:47:00,92.6,66.8,29.83,South,169,0.0,0.0,43,0.00,,,0.00,WeatherCatV1.15B25,2013-09-08 00:47:00,
2013-09-07 19:52:00,92.1,67.0,29.83,South,169,0.0,0.0,44,0.00,,,0.00,WeatherCatV1.15B25,2013-09-08 00:52:00,
2013-09-07 19:57:00,91.7,66.6,29.83,South,169,0.0,0.0,44,0.00,,,0.00,WeatherCatV1.15B25,2013-09-08 00:57:00,
2013-09-07 20:02:00,91.1,66.1,29.83,SSE,153,0.0,1.0,44,0.00,,,0.00,WeatherCatV1.15B25,2013-09-08 01:02:00,
2013-09-07 20:07:00,90.7,67.0,29.83,SSE,150,0.0,0.0,46,0.00,,,0.00,WeatherCatV1.15B25,2013-09-08 01:07:00,
2013-09-07 20:12:00,90.1,65.9,29.83,SSE,150,0.0,0.0,45,0.00,,,0.00,WeatherCatV1.15B25,2013-09-08 01:12:00,
2013-09-07 20:17:00,89.7,64.8,29.83,SSE,150,0.0,0.0,44,0.00,,,0.00,WeatherCatV1.15B25,2013-09-08 01:17:00,
2013-09-07 20:22:00,89.3,65.1,29.83,SSE,150,0.0,0.0,45,0.00,,,0.00,WeatherCatV1.15B25,2013-09-08 01:22:00,
2013-09-07 20:27:00,88.8,64.7,29.83,South,190,6.0,13.0,45,0.00,,,0.00,WeatherCatV1.15B25,2013-09-08 01:27:00,
2013-09-07 20:32:00,88.4,66.2,29.84,SW,225,11.0,12.0,48,0.00,,,0.00,WeatherCatV1.15B25,2013-09-08 01:32:00,
2013-09-07 20:37:00,88.2,67.7,29.84,WNW,303,1.0,12.0,51,0.00,,,0.00,WeatherCatV1.15B25,2013-09-08 01:37:00,
2013-09-07 20:42:00,87.9,68.6,29.84,SW,217,1.0,7.0,53,0.00,,,0.00,WeatherCatV1.15B25,2013-09-08 01:42:00,
2013-09-07 20:47:00,87.7,69.0,29.85,SW,219,2.0,6.0,54,0.00,,,0.00,WeatherCatV1.15B25,2013-09-08 01:47:00,
2013-09-07 20:52:00,87.3,69.1,29.85,SSE,165,3.0,7.0,55,0.00,,,0.00,WeatherCatV1.15B25,2013-09-08 01:52:00,
2013-09-07 20:57:00,87.0,68.8,29.85,South,187,2.0,9.0,55,0.00,,,0.00,WeatherCatV1.15B25,2013-09-08 01:57:00,
2013-09-07 21:02:00,86.8,69.2,29.85,West,264,1.0,6.0,56,0.00,,,0.00,WeatherCatV1.15B25,2013-09-08 02:02:00,
2013-09-07 21:07:00,86.5,68.9,29.85,SSW,195,2.0,9.0,56,0.00,,,0.00,WeatherCatV1.15B25,2013-09-08 02:07:00,
2013-09-07 21:12:00,86.3,68.7,29.85,SSW,211,0.0,4.0,56,0.00,,,0.00,WeatherCatV1.15B25,2013-09-08 02:12:00,
2013-09-07 21:17:00,86.1,69.1,29.86,SSE,153,3.0,4.0,57,0.00,,,0.00,WeatherCatV1.15B25,2013-09-08 02:17:00,
2013-09-07 21:22:00,85.9,68.9,29.86,SW,231,0.0,5.0,57,0.00,,,0.00,WeatherCatV1.15B25,2013-09-08 02:22:00,
2013-09-07 21:27:00,85.7,69.2,29.86,SSE,164,0.0,0.0,58,0.00,,,0.00,WeatherCatV1.15B25,2013-09-08 02:27:00,
2013-09-07 21:32:00,85.5,69.0,29.86,SSW,197,0.0,2.0,58,0.00,,,0.00,WeatherCatV1.15B25,2013-09-08 02:32:00,
2013-09-07 21:37:00,85.2,68.7,29.86,ESE,120,0.0,2.0,58,0.00,,,0.00,WeatherCatV1.15B25,2013-09-08 02:37:00,
2013-09-07 21:42:00,85.0,69.0,29.86,SSW,205,0.0,0.0,59,0.00,,,0.00,WeatherCatV1.15B25,2013-09-08 02:42:00,
2013-09-07 21:47:00,84.8,68.8,29.86,South,171,0.0,1.0,59,0.00,,,0.00,WeatherCatV1.15B25,2013-09-08 02:47:00,
2013-09-07 21:52:00,84.6,69.2,29.86,SSE,167,0.0,3.0,60,0.00,,,0.00,WeatherCatV1.15B25,2013-09-08 02:52:00,
2013-09-07 21:57:00,84.3,68.9,29.86,SW,217,0.0,4.0,60,0.00,,,0.00,WeatherCatV1.15B25,2013-09-08 02:57:00,
2013-09-07 22:02:00,84.1,68.7,29.87,SSW,213,0.0,0.0,60,0.00,,,0.00,WeatherCatV1.15B25,2013-09-08 03:02:00,
2013-09-07 22:07:00,83.9,69.0,29.87,South,178,0.0,0.0,61,0.00,,,0.00,WeatherCatV1.15B25,2013-09-08 03:07:00,
2013-09-07 22:12:00,83.6,68.7,29.87,South,189,0.0,0.0,61,0.00,,,0.00,WeatherCatV1.15B25,2013-09-08 03:12:00,
2013-09-07 22:17:00,83.5,68.6,29.87,WSW,258,0.0,3.0,61,0.00,,,0.00,WeatherCatV1.15B25,2013-09-08 03:17:00,
2013-09-07 22:22:00,83.3,68.4,29.87,WNW,289,0.0,1.0,61,0.00,,,0.00,WeatherCatV1.15B25,2013-09-08 03:22:00,
2013-09-07 22:27:00,83.1,68.2,29.87,SW,229,1.0,3.0,61,0.00,,,0.00,WeatherCatV1.15B25,2013-09-08 03:27:00,
2013-09-07 22:32:00,82.9,68.0,29.87,SSW,195,0.0,0.0,61,0.00,,,0.00,WeatherCatV1.15B25,2013-09-08 03:32:00,
2013-09-07 22:37:00,82.7,67.9,29.87,SSW,204,0.0,0.0,61,0.00,,,0.00,WeatherCatV1.15B25,2013-09-08 03:37:00,
2013-09-07 22:42:00,82.5,68.1,29.87,South,169,0.0,4.0,62,0.00,,,0.00,WeatherCatV1.15B25,2013-09-08 03:42:00,
2013-09-07 22:47:00,82.4,67.6,29.86,SSW,202,0.0,1.0,61,0.00,,,0.00,WeatherCatV1.15B25,2013-09-08 03:47:00,
2013-09-07 22:52:00,82.3,67.9,29.86,SSE,155,0.0,2.0,62,0.00,,,0.00,WeatherCatV1.15B25,2013-09-08 03:52:00,
2013-09-07 22:57:00,82.1,67.3,29.86,SW,233,0.0,0.0,61,0.00,,,0.00,WeatherCatV1.15B25,2013-09-08 03:57:00,
2013-09-07 23:01:00,82.0,67.2,29.87,SW,215,0.0,0.0,61,0.00,,,0.00,WeatherCatV1.15B25,2013-09-08 04:01:00,
2013-09-07 23:06:00,81.9,67.6,29.87,SSW,213,0.0,0.0,62,0.00,,,0.00,WeatherCatV1.15B25,2013-09-08 04:06:00,
2013-09-07 23:11:00,81.8,67.9,29.87,SSW,213,0.0,0.0,63,0.00,,,0.00,WeatherCatV1.15B25,2013-09-08 04:11:00,
2013-09-07 23:16:00,81.7,67.9,29.87,SSW,213,0.0,0.0,63,0.00,,,0.00,WeatherCatV1.15B25,2013-09-08 04:16:00,
2013-09-07 23:21:00,81.5,68.1,29.87,SSW,213,0.0,0.0,64,0.00,,,0.00,WeatherCatV1.15B25,2013-09-08 04:21:00,
2013-09-07 23:26:00,81.3,67.9,29.87,SSW,213,0.0,0.0,64,0.00,,,0.00,WeatherCatV1.15B25,2013-09-08 04:26:00,
2013-09-07 23:31:00,81.1,68.2,29.87,SSW,213,0.0,0.0,65,0.00,,,0.00,WeatherCatV1.15B25,2013-09-08 04:31:00,
2013-09-07 23:36:00,80.8,67.9,29.87,SSW,213,0.0,0.0,65,0.00,,,0.00,WeatherCatV1.15B25,2013-09-08 04:36:00,
2013-09-07 23:41:00,80.5,68.1,29.87,SSW,213,0.0,0.0,66,0.00,,,0.00,WeatherCatV1.15B25,2013-09-08 04:41:00,
2013-09-07 23:46:00,80.3,67.9,29.87,SSW,213,0.0,0.0,66,0.00,,,0.00,WeatherCatV1.15B25,2013-09-08 04:46:00,
2013-09-07 23:51:00,80.0,68.0,29.87,SSW,210,0.0,0.0,67,0.00,,,0.00,WeatherCatV1.15B25,2013-09-08 04:51:00,
2013-09-07 23:56:00,79.7,67.7,29.87,SSW,210,0.0,0.0,67,0.00,,,0.00,WeatherCatV1.15B25,2013-09-08 04:56:00,